This demonstration page uses our WeatherBlox Daily Observations layout. Learn more.

Hourly Observations for March 24, 2016

Temp ( °F °C ) Dew Point ( °F °C ) Humidity (%) Winds ( mph kmh ) Pressure ( in mb ) Visibility ( mi km ) Precip ( " mm )
12:15 am 00:15 Clear 55 13 36 2 47 47 S 7 11 30 1016 10 16.09344 0 0
12:35 am 00:35 Clear 55 13 36 2 47 47 S 7 11 29.97 1015 10 16.09344 0 0
12:55 am 00:55 Clear 52 11 37 3 58 58 SSW 8 13 30 1016 10 16.09344 0 0
1:15 am 01:15 Clear 52 11 37 3 58 58 SSW 7 11 29.97 1015 10 16.09344 0 0
1:35 am 01:35 Clear 52 11 37 3 58 58 SSW 7 11 29.97 1015 10 16.09344 0 0
1:55 am 01:55 Clear 52 11 36 2 54 54 SSW 7 11 29.97 1015 10 16.09344 0 0
2:15 am 02:15 Clear 54 12 36 2 51 51 SSW 8 13 30 1016 10 16.09344 0 0
2:35 am 02:35 Clear 50 10 37 3 62 62 WSW 6 9 29.97 1015 10 16.09344 0 0
2:55 am 02:55 Clear 55 13 36 2 47 47 SSW 6 9 29.97 1015 10 16.09344 0 0
3:15 am 03:15 Clear 46 8 37 3 71 71 SW 3 6 30 1016 10 16.09344 0 0
3:35 am 03:35 Clear 54 12 36 2 51 51 W 7 11 29.97 1015 10 16.09344 0 0
3:55 am 03:55 Clear 54 12 36 2 51 51 WSW 3 6 29.97 1015 10 16.09344 0 0
4:15 am 04:15 Clear 52 11 36 2 54 54 S 7 11 29.97 1015 10 16.09344 0 0
4:35 am 04:35 Clear 52 11 36 2 54 54 S 6 9 29.97 1015 10 16.09344 0 0
4:55 am 04:55 Clear 52 11 36 2 54 54 SSW 7 11 30 1016 10 16.09344 0 0
5:15 am 05:15 Clear 50 10 36 2 58 58 Calm 30 1016 10 16.09344 0 0
5:35 am 05:35 Clear 48 9 36 2 62 62 WNW 3 6 30.03 1017 10 16.09344 0 0
5:55 am 05:55 Clear 48 9 36 2 62 62 NW 3 6 30.03 1017 10 16.09344 0 0
6:15 am 06:15 Clear 46 8 36 2 66 66 Calm 30.03 1017 10 16.09344 0 0
6:35 am 06:35 Clear 45 7 37 3 76 76 Calm 30.03 1017 10 16.09344 0 0
6:55 am 06:55 Clear 46 8 36 2 66 66 SW 3 6 30.03 1017 10 16.09344 0 0
7:15 am 07:15 Sunny 43 6 36 2 76 76 NW 3 6 30.03 1017 10 16.09344 0 0
7:35 am 07:35 Sunny 45 7 37 3 76 76 Calm 30.06 1018 10 16.09344 0 0
7:55 am 07:55 Sunny 45 7 37 3 76 76 Calm 30.06 1018 10 16.09344 0 0
8:15 am 08:15 Sunny 46 8 41 5 82 82 Calm 30.06 1018 10 16.09344 0 0
8:35 am 08:35 Sunny 50 10 41 5 71 71 Calm 30.03 1017 10 16.09344 0 0
8:55 am 08:55 Sunny 54 12 39 4 58 58 Calm 30.03 1017 10 16.09344 0 0
9:15 am 09:15 Sunny 55 13 41 5 59 59 Calm 30.03 1017 10 16.09344 0 0
9:35 am 09:35 Sunny 59 15 41 5 51 51 SSW 8 13 30 1016 10 16.09344 0 0
9:55 am 09:55 Sunny 63 17 41 5 45 45 SW 3 6 30 1016 10 16.09344 0 0
10:15 am 10:15 Sunny 64 18 41 5 43 43 S 6 9 30 1016 10 16.09344 0 0
10:35 am 10:35 Sunny 66 19 41 5 40 40 SSW 7 11 30 1016 10 16.09344 0 0
10:55 am 10:55 Sunny 70 21 43 6 38 38 S 6 9 30 1016 10 16.09344 0 0
11:15 am 11:15 Sunny 70 21 43 6 38 38 S 5 7 30 1016 10 16.09344 0 0
11:35 am 11:35 Sunny 72 22 43 6 36 36 SSE 5 7 29.97 1015 10 16.09344 0 0
11:55 am 11:55 Sunny 72 22 41 5 33 33 SSE 10 17 29.97 1015 10 16.09344 0 0
12:15 pm 12:15 Sunny 72 22 41 5 33 33 SSE 7 11 29.97 1015 10 16.09344 0 0
12:35 pm 12:35 Sunny 73 23 41 5 31 31 SSE 10 17 29.94 1014 10 16.09344 0 0
12:55 pm 12:55 Sunny 73 23 43 6 33 33 SSE 9 15 29.94 1014 10 16.09344 0 0
1:15 pm 13:15 Sunny 75 24 43 6 31 31 S 8 13 29.94 1014 10 16.09344 0 0
1:35 pm 13:35 Sunny 77 25 43 6 30 30 S 16 26 29.91 1013 10 16.09344 0 0
1:55 pm 13:55 Sunny 77 25 45 7 32 32 S 14 22 29.91 1013 10 16.09344 0 0
2:15 pm 14:15 Sunny 77 25 45 7 32 32 S 14 22 29.88 1012 10 16.09344 0 0
2:35 pm 14:35 Sunny 77 25 45 7 32 32 S 16 26 29.88 1012 10 16.09344 0 0
2:55 pm 14:55 Sunny 79 26 46 8 32 32 S 13 20 29.85 1011 10 16.09344 0 0
3:15 pm 15:15 Sunny 79 26 45 7 30 30 SSW 21 33 29.85 1011 10 16.09344 0 0
3:35 pm 15:35 Sunny 79 26 45 7 30 30 S 18 30 29.83 1010 10 16.09344 0 0
3:55 pm 15:55 Sunny 79 26 45 7 30 30 S 22 35 29.83 1010 10 16.09344 0 0
4:15 pm 16:15 Sunny 79 26 45 7 30 30 S 21 33 29.8 1009 10 16.09344 0 0
4:35 pm 16:35 Sunny 79 26 45 7 30 30 S 20 31 29.8 1009 10 16.09344 0 0
4:55 pm 16:55 Sunny 79 26 46 8 32 32 S 15 24 29.77 1008 10 16.09344 0 0
5:15 pm 17:15 Sunny 77 25 46 8 34 34 S 20 31 29.77 1008 10 16.09344 0 0
5:35 pm 17:35 Sunny 77 25 46 8 34 34 S 15 24 29.77 1008 10 16.09344 0 0
5:55 pm 17:55 Sunny 77 25 48 9 36 36 S 20 31 29.77 1008 10 16.09344 0 0
6:15 pm 18:15 Sunny 77 25 50 10 39 39 SSW 14 22 29.77 1008 10 16.09344 0 0
6:35 pm 18:35 Sunny 77 25 48 9 36 36 S 18 30 29.77 1008 10 16.09344 0 0
6:55 pm 18:55 Sunny 75 24 48 9 39 39 S 17 28 29.74 1007 10 16.09344 0 0
7:15 pm 19:15 Sunny 75 24 46 8 36 36 S 14 22 29.74 1007 10 16.09344 0 0
7:35 pm 19:35 Clear 73 23 46 8 38 38 S 13 20 29.74 1007 10 16.09344 0 0
7:55 pm 19:55 Clear 73 23 46 8 38 38 S 16 26 29.74 1007 10 16.09344 0 0
8:15 pm 20:15 Clear 72 22 48 9 44 44 S 12 19 29.74 1007 10 16.09344 0 0
8:35 pm 20:35 Clear 72 22 50 10 47 47 S 16 26 29.74 1007 10 16.09344 0 0
8:55 pm 20:55 Clear 72 22 50 10 47 47 S 10 17 29.74 1007 10 16.09344 0 0
9:15 pm 21:15 Clear 72 22 50 10 47 47 S 15 24 29.77 1008 10 16.09344 0 0
9:35 pm 21:35 Clear 72 22 50 10 47 47 S 13 20 29.77 1008 10 16.09344 0 0
9:55 pm 21:55 Partly Cloudy 72 22 48 9 44 44 S 16 26 29.77 1008 10 16.09344 0 0
10:15 pm 22:15 Partly Cloudy 72 22 48 9 44 44 S 18 30 29.74 1007 10 16.09344 0 0
10:35 pm 22:35 Clear 72 22 48 9 44 44 S 18 30 29.74 1007 10 16.09344 0 0
10:55 pm 22:55 Clear 70 21 50 10 50 50 S 16 26 29.74 1007 10 16.09344 0 0
11:15 pm 23:15 Mostly Cloudy 70 21 50 10 50 50 S 16 26 29.74 1007 10 16.09344 0 0
11:35 pm 23:35 Partly Cloudy 70 21 50 10 50 50 S 16 26 29.74 1007 10 16.09344 0 0
11:55 pm 23:55 Clear 70 21 50 10 50 50 SSW 16 26 29.74 1007 10 16.09344 0 0

Powered by AerisWeather